Powrót do katalogu

DELTA 1 DEB

AktywnySSO
NORAD 37670·DEBRIS·🇺🇸 United States

Wystrzelony Mar 5, 1978 z Vandenberg Space Force Base

Loading…

Następne Przeloty (najbliższe 24 godziny)

TLE

ŚwieżeSource: Space-Track

Epoka: Sep 11, 2026, 23:06 UTC

1 37670U 78026KH  26254.96295217  .00000017  00000-0  50445-4 0  9996
2 37670  99.0090 150.2061 0070144 274.1143  85.2000 13.87272776665625

Śledź DELTA 1 DEB w czasie rzeczywistym z AllMySat

Download on the App Store